SANTA FE DAM CA US current weather conditions

sailwx.info

Wind from 199 at 3 knots gusting 9

Air temperature 17.8° C
Dewpoint 9.1° C

Last reported at 2016-May-24 02:57 UTC.
Time now 2016-May-24 06:03 UTC

Location: N 34°08' W 117°57'.
View on Google Maps.

See reports from other nearby stations

  
Tides and Currents Weather Stations Pressure Air Temp Water Temp Dewpoint Dewpoint Depression Visibility Wind Speed Wind Dir Waves Ship Positions
date/time (UTC)wind fromknots sea level pressurealtimeterstation pressurevisibilityair tempwater tempwave heightnotes
2016-May-24 02:57 199 3 gusting 9 17.8
2016-May-24 01:57 195 6 gusting 13 18.9
2016-May-24 00:57 217 7 gusting 15 21.1
2016-May-23 23:57 224 8 gusting 17 23.9
2016-May-23 22:57 218 6 gusting 16 25.0
2016-May-23 21:57 244 8 gusting 15 23.9
2016-May-23 20:57 225 6 gusting 14 23.9
2016-May-23 19:57 133 4 gusting 10 22.8
2016-May-23 18:57 253 4 gusting 8 20.6
2016-May-23 17:57 296 3 gusting 10 20.6
2016-May-23 16:57 166 2 gusting 8 20.6
2016-May-23 15:57 276 2 gusting 6 20.0
2016-May-23 14:57 064 1 gusting 7 16.1
2016-May-23 13:57 300 4 gusting 8 13.9
2016-May-23 12:57 338 3 gusting 10 11.7
2016-May-23 11:57 145 3 gusting 10 12.2
2016-May-23 10:57 047 3 gusting 10 11.7
2016-May-23 09:57 193 4 gusting 8 12.2
2016-May-23 08:57 050 2 gusting 8 13.3
2016-May-23 07:57 016 3 gusting 6 13.3
2016-May-23 06:57 189 0 gusting 4 12.2
2016-May-23 05:57 347 0 gusting 2 11.7
2016-May-23 04:57 208 2 gusting 4 14.4
2016-May-23 03:57 233 2 gusting 6 14.4
2016-May-23 02:57 228 3 gusting 13 16.7
2016-May-23 01:57 218 7 gusting 16 19.4
2016-May-23 00:57 225 7 gusting 17 22.2
2016-May-22 23:57 225 9 gusting 19 22.8
2016-May-22 22:57 233 7 gusting 17 24.4
2016-May-22 21:57 231 7 gusting 16 23.9
2016-May-22 20:57 229 6 gusting 17 23.9
2016-May-22 19:57 245 6 gusting 13 23.3
2016-May-22 18:57 291 3 gusting 12 21.7
2016-May-22 17:57 252 3 gusting 10 21.1
2016-May-22 16:57 184 4 gusting 8 20.6
2016-May-22 15:57 306 3 gusting 10 18.3
2016-May-22 14:57 039 3 gusting 11 16.7
2016-May-22 13:57 280 4 gusting 12 12.8
2016-May-22 12:57 038 5 gusting 12 10.6
2016-May-22 11:57 039 6 gusting 12 11.1
2016-May-22 10:57 042 4 gusting 12 12.2
2016-May-22 09:57 040 4 gusting 9 12.2
2016-May-22 08:57 046 4 gusting 9 12.8
2016-May-22 07:57 043 2 gusting 6 12.8
2016-May-22 06:57 294 2 gusting 6 13.3